If you wish to contribute or participate in the discussions about articles you are invited to join SKYbrary as a registered user

 Actions

Alesund/Vigra

From SKYbrary Wiki

ENAL
Airport
ICAO: ENAL
Summary
Name Alesund/Vigra
Region Europe
Territory Norway NO.gif
Location Alesund/Vigra
Serving
Coordinates 62° 33' 38.5038", 6° 6' 40.6483"
Runways
Designator Length Width Surface ROPS
7/25 2314 m7,591.864 ft 45 m147.638 ft ASP yes/yes


METAR
Observation ENAL 180650Z 09004KT 9999 SCT060 BKN130 13/12 Q1003
Station Alesund / Vigra
Date/Time 18 June 2018 06:50:00
Wind direction 90°
Wind speed 04 kts
Lowest cloud amount scattered clouds
Temperature 13°C
Dew point 12°C
Humidity 93%
QNH 1003 hPa
Weather condition n/a


Alesund/Vigra Airport

ICAO: ENAL IATA: AES

Description

Airport serving Alesund, Norway.

Climatology

Temperate Marine climate/Oceanic climate (Köppen climate classification Cfb). Moderately cool summer and comparatively warm winter with a temperature range of only 14°C287.15 K
57.2 °F
516.87 °R
. Prevailing south-westerly winds from the Atlantic Ocean.

Maps

Terrain

Loading map...

Airport Layout

Loading map...


Accidents & Serious Incidents at or in vicinity of ENAL

None on SKYbrary